#timestamp,LO_Frequency,Hit,StdDev 
1515139215.2,286046996.2,N
1515139235.1,286046992.5,N
1515139236.0,286046992.5,N
1515139255.8,286046991.2,N
1515139275.6,286046988.6,N
1515139295.5,286046991.5,N
1515139315.3,286046993.8,N
1515139335.1,286046996.0,N
1515139355.9,286046998.9,N
1515139375.7,286046998.9,N
1515139395.5,286046999.5,N
1515139415.4,286047000.7,N
1515139435.2,286046996.9,N
1515139455.0,286046999.2,N
1515139455.9,286046999.2,N
1515139475.8,286047000.5,N
1515139495.6,286046999.2,N
1515139515.4,286046996.5,N
1515139535.2,286046996.9,N
1515139555.1,286046999.6,N
1515139556.0,286046999.6,N
1515139575.8,286046998.8,N
1515139595.6,286046994.5,N
1515139615.5,286046996.3,N
1515139635.3,286046994.0,N
1515139655.1,286046990.8,N
1515139675.9,286046990.2,Y
1515139695.7,286046992.2,P
1515139715.5,286046987.4,P
1515139735.4,286046988.1,P
1515139755.2,286046992.8,N
1515139775.0,286046993.8,N
1515139775.9,286046993.8,N
1515139795.8,286046997.5,N
1515139815.6,286047000.6,N
1515139835.4,286046999.6,N
1515139855.3,286046991.8,N
1515139875.1,286046987.1,Y
1515139876.0,286046987.1,P
1515139895.8,286046996.6,N
1515139915.7,286047000.7,N
1515139935.5,286047000.8,N
1515139955.3,286046997.1,N
1515139975.2,286046997.9,N
1515139995.9,286046995.6,N
1515140015.7,286046995.9,N
1515140035.5,286046994.1,N
1515140055.4,286046989.3,N
1515140075.2,286046987.8,Y
1515140095.0,286046995.8,P
1515140096.0,286046995.8,P
1515140115.8,286046998.3,P
1515140135.6,286046997.5,N
1515140155.4,286046999.6,N
1515140175.3,286047000.9,N
1515140195.1,286047002.2,N
1515140215.8,286047001.9,N
1515140235.7,286047000.9,N
1515140255.5,286046998.9,N
1515140275.3,286046996.6,N
1515140295.2,286046999.2,N
1515140315.9,286046996.5,N
1515140335.7,286046999.6,N
1515140355.6,286046998.0,N
1515140375.4,286046994.9,N
1515140395.2,286046994.1,N
1515140415.0,286046996.3,N
1515140415.9,286046996.3,N
1515140435.8,286046991.8,Y
1515140455.6,286046995.9,P
1515140475.4,286046991.7,P
1515140495.3,286046995.7,N
1515140515.1,286046997.7,N
1515140535.8,286046993.3,Y
1515140555.7,286047000.7,P
1515140575.5,286047003.9,N
1515140595.3,286047002.6,N
1515140615.2,286046997.4,N
1515140635.9,286046997.5,N
1515140655.7,286047000.0,N
1515140675.6,286046999.4,N
1515140695.4,286047003.9,N
1515140715.2,286047004.1,N
1515140735.1,286047005.7,N
1515140736.0,286047005.7,N
1515140755.8,286047002.3,N
1515140775.6,286047002.0,N
1515140795.5,286047006.1,N
1515140815.3,286047013.5,Y
1515140835.1,286047011.1,P
1515140855.9,286047014.7,P
1515140875.7,286047019.6,P
1515140895.5,286047012.6,N
1515140915.3,286047011.0,N
1515140935.2,286047012.1,N
1515140955.0,286047009.7,N
1515140955.9,286047009.7,N
1515140975.8,286047013.5,Y
1515140995.6,286047004.3,P
1515141015.4,286047001.9,N
1515141035.2,286046997.4,N
1515141055.1,286046994.9,N
1515141056.0,286046994.9,N
1515141075.8,286046995.2,N
1515141095.6,286046996.6,N
1515141115.5,286047000.0,N
1515141135.3,286047002.9,N
1515141155.1,286047003.2,N
1515141175.9,286047010.5,N
1515141195.7,286047011.1,N
1515141215.5,286047013.7,N
1515141235.3,286047013.7,N
1515141255.2,286047011.0,N
1515141275.0,286047014.9,N
1515141275.9,286047014.9,N
1515141295.7,286047016.6,N
1515141315.6,286047017.8,N
1515141335.4,286047019.8,N
1515141355.2,286047016.2,N
1515141375.1,286047013.5,N
1515141376.0,286047013.5,N
1515141395.8,286047013.6,N
1515141415.6,286047011.8,N
1515141435.5,286047013.2,N
1515141455.3,286047013.5,N
1515141475.1,286047011.0,N
1515141495.9,286047010.5,N
1515141515.7,286047009.5,N
1515141535.5,286047013.1,N
1515141555.3,286047009.4,N
1515141575.2,286047007.7,N
1515141595.0,286047006.8,N
1515141595.9,286047006.8,N
1515141615.7,286047005.6,N
1515141635.6,286047002.4,N
1515141655.4,286046998.1,N
1515141675.2,286046998.3,N
1515141695.1,286047000.0,N
1515141696.0,286047000.0,N
1515141715.8,286047005.8,N
1515141735.6,286047009.1,N
1515141755.5,286047008.0,N
1515141775.3,286047002.9,N
1515141795.1,286047000.5,N
1515141815.9,286047002.8,N
1515141835.7,286047000.0,N
1515141855.5,286046999.3,N
1515141875.4,286047000.5,N
1515141895.2,286047002.4,N
1515141915.0,286047004.4,N
1515141915.9,286047004.4,N
1515141935.8,286047000.5,N
1515141955.6,286047002.8,N
1515141975.4,286046999.5,N
1515141995.2,286046997.4,N
1515142015.1,286046999.8,N
1515142016.0,286046999.8,N
1515142035.8,286047001.4,N
1515142055.6,286047001.0,N
1515142075.5,286046997.4,N
1515142095.3,286046999.8,N
1515142115.1,286046999.8,N
1515142135.9,286046998.7,N
1515142155.7,286046999.1,N
1515142175.5,286046997.7,N
1515142195.4,286046996.4,N
1515142215.2,286046996.0,N
1515142235.0,286046995.7,N
1515142235.9,286046995.7,N
1515142255.8,286046991.5,N
1515142275.6,286046990.8,N
1515142295.4,286046996.0,N
1515142315.2,286046992.1,N
1515142335.1,286046991.2,N
1515142336.0,286046991.2,N
1515142355.8,286046992.0,N
1515142375.6,286046992.7,N
1515142395.5,286046985.7,Y
1515142415.3,286046988.4,P
1515142435.1,286046986.0,P
1515142455.9,286046985.7,N
1515142475.7,286046988.4,N
1515142495.6,286046986.0,Y
1515142515.4,286046998.0,P
1515142535.2,286047001.1,N
1515142555.0,286047004.3,N
1515142555.9,286047004.3,N
1515142575.8,286046998.7,N
1515142595.6,286046998.1,N
1515142615.4,286047000.2,N
1515142635.3,286046999.0,N
1515142655.1,286046998.6,N
1515142656.0,286046998.6,N
1515142675.8,286047001.3,N
1515142695.7,286047001.6,N
1515142715.5,286047002.7,N
1515142735.3,286046996.5,N
1515142755.2,286047000.8,N
1515142775.9,286046997.7,N
1515142795.7,286046994.9,N
